Location: Spruce Knob
(38.6995°N, 79.5330°W)
Time: 05:40:42
(UTC-05:00)

Explorer 11/Cluster Stage 4 - All Passes

Search period start: 19 January 2022 00:00
Search period end: 29 January 2022 00:00
Orbit: 467 x 1255 km, 28.8° (Epoch: 18 January)

Date Brightness Start Highest point End Pass type
(mag) Time Alt. Az. Time Alt. Az. Time Alt. Az.
19 Jan - 05:54:58 10° SSW 05:57:55 18° SSE 06:01:16 10° ESE visible
19 Jan - 07:41:32 10° SW 07:45:39 28° S 07:50:35 10° ESE daylight
19 Jan - 09:29:18 10° WSW 09:33:44 24° S 09:38:56 10° SE daylight
19 Jan - 11:19:09 10° SW 11:21:54 13° SSW 11:24:51 10° S daylight
20 Jan - 05:43:38 10° SSW 05:46:32 18° SSE 05:49:47 10° ESE visible
20 Jan - 07:30:22 10° SW 07:34:14 26° S 07:38:52 10° ESE daylight
20 Jan - 09:18:15 10° WSW 09:22:16 21° SSW 09:26:55 10° SE daylight
20 Jan - 11:09:42 10° SSW 11:10:24 10° SSW 11:11:06 10° SSW daylight
21 Jan - 05:32:20 10° SSW 05:35:10 19° SSE 05:38:18 10° ESE visible
21 Jan - 07:19:13 10° SW 07:22:51 24° S 07:27:08 10° SE daylight
21 Jan - 09:07:18 10° SW 09:10:49 18° SSW 09:14:51 10° SSE daylight
22 Jan - 05:21:02 10° SW 05:23:47 19° S 05:26:50 10° SE visible
22 Jan - 07:08:06 10° SW 07:11:29 22° S 07:15:24 10° SE daylight
22 Jan - 08:56:28 10° SW 08:59:24 15° SSW 09:02:40 10° SSE daylight
23 Jan - 05:09:46 10° SW 05:12:27 19° S 05:15:22 10° SE visible
23 Jan - 06:57:01 10° SW 07:00:08 20° S 07:03:39 10° SE visible
23 Jan - 08:45:53 10° SW 08:47:59 13° SSW 08:50:15 10° S daylight
24 Jan - 04:58:30 10° SW 05:01:07 18° S 05:03:56 10° SE visible
24 Jan - 06:45:59 10° SW 06:48:47 18° S 06:51:54 10° SE visible
25 Jan - 03:01:09 10° S 03:02:15 11° SSE 03:03:23 10° SSE night (unlit)
25 Jan - 04:47:13 10° SW 04:49:47 18° S 04:52:30 10° SE visible
25 Jan - 06:35:00 10° SW 06:37:26 16° S 06:40:05 10° SSE visible
26 Jan - 02:49:16 10° SSW 02:50:55 13° SSE 02:52:32 10° SE night (unlit)
26 Jan - 04:35:57 10° SW 04:38:28 18° S 04:41:05 10° SE visible
26 Jan - 06:24:05 10° SW 06:26:05 14° S 06:28:13 10° SSE visible
27 Jan - 02:37:32 10° SSW 02:39:35 14° S 02:41:34 10° SE night (unlit)
27 Jan - 04:24:41 10° SW 04:27:09 17° S 04:29:39 10° SE visible
27 Jan - 06:13:21 10° SW 06:14:44 12° SSW 06:16:10 10° S visible
28 Jan - 02:25:51 10° SSW 02:28:15 16° S 02:30:31 10° SE night (unlit)
28 Jan - 04:13:24 10° SW 04:15:50 17° S 04:18:15 10° SE visible
